Погода в Зенькове

Украина / Полтавская область     50˚12′35″N   34˚21′32″E
темп.,
°C
ветер,
м/с
пор.,
м/с
влажн.,
%
обл.,
%
осадки,
мм/ч
давл.,
гПа
погр.,
м
5 декабря, сб
сб523:00−2˚вюв611793 0.0 1031425
02:00−3˚вюв511782 0.0 1032412
05:00−3˚вюв511680 0.0 1032418
08:00−3˚вюв611660 0.0 1033413
11:00вюв6116111 0.0 1033464
14:00+1˚вюв610569 0.0 1033457
17:00−2˚вюв613460 0.0 1034371
20:00−3˚вюв612450 0.0 1035350
6 декабря, вс
вс623:00−3˚вюв612450 0.0 1035347
02:00−4˚вюв511470 0.0 1037322
05:00−5˚в611450 0.0 1036323
08:00−5˚в611450 0.0 1037349
11:00−2˚в611420 0.0 1037465
14:00−1˚в610500 0.0 1036542
17:00−4˚в613570 0.0 1036463
20:00−4˚в613590 0.0 1036491
7 декабря, пн
пн723:00−5˚в613630 0.0 1037501
02:00−6˚в714640 0.0 1037464
05:00−6˚в714650 0.0 1036446
08:00−6˚в714630 0.0 1036470
11:00−4˚в813490 0.0 1035573
14:00−2˚в814440 0.0 1034665
17:00−4˚в816470 0.0 1034565
20:00−4˚вюв815450 0.0 1034526
8 декабря, вт
вт823:00−5˚вюв715520 0.0 1034493
02:00−5˚вюв715530 0.0 1033476
05:00−5˚в716520 0.0 1032456
08:00−5˚вюв715510 0.0 1032499
11:00−2˚вюв815410 0.0 1031589
14:00−1˚вюв814400 0.0 1030645
17:00−3˚вюв715470 0.0 1030545
20:00−4˚вюв714490 0.0 1030511
9 декабря, ср
ср923:00−5˚вюв714530 0.0 1031453
02:00−5˚в612600 0.0 1031429
05:00−5˚в6136337 0.0 1030440
08:00−6˚вюв6126667 0.0 1030483
11:00−4˚вюв6107264 0.0 1030557
14:00−4˚вюв697682 0.0 1029545
17:00−3˚вюв61183100 0.0 1029491
20:00−2˚вюв61180100 0.1 1029445